• en Suisse
  • Liste des pays
  • À 7 jours
  • Température de l'eau
  • Carte satellitaire
  • Carte météo
  • Widgets météo
  • user-avatar
    Se connecter

    Météo par heure à Tovarec

    Ce jour, 17 Août, Vendredi

    Heure Température Précipitation Vent Pression Humidité
    00:00 +15°C° 0 mm 1 m/s 761 mmHg 88%
    01:00 +14°C° 0 mm 1 m/s 762 mmHg 90%
    02:00 +14°C° 0 mm 1 m/s 762 mmHg 93%
    03:00 +14°C° 0 mm 1 m/s 762 mmHg 94%
    04:00 +14°C° 0 mm 1 m/s 762 mmHg 95%
    05:00 +13°C° 0 mm 1 m/s 762 mmHg 96%
    06:00 +15°C° 0 mm 1 m/s 762 mmHg 89%
    07:00 +17°C° 0 mm 2 m/s 762 mmHg 83%
    08:00 +19°C° 0 mm 2 m/s 762 mmHg 77%
    09:00 +20°C° 0 mm 2 m/s 762 mmHg 71%
    10:00 +23°C° 0 mm 2 m/s 762 mmHg 65%
    11:00 +24°C° 0 mm 2 m/s 762 mmHg 59%
    12:00 +25°C° 0 mm 2 m/s 762 mmHg 56%
    13:00 +25°C° 0 mm 2 m/s 761 mmHg 54%
    14:00 +26°C° 0 mm 2 m/s 761 mmHg 52%
    15:00 +26°C° 0 mm 2 m/s 761 mmHg 54%
    16:00 +26°C° 0 mm 2 m/s 761 mmHg 57%
    17:00 +26°C° 0 mm 2 m/s 760 mmHg 59%
    18:00 +24°C° 0 mm 2 m/s 760 mmHg 65%
    19:00 +21°C° 0 mm 2 m/s 760 mmHg 72%
    20:00 +20°C° 0 mm 1 m/s 760 mmHg 79%
    21:00 +18°C° 0 mm 2 m/s 760 mmHg 81%
    22:00 +18°C° 0 mm 2 m/s 760 mmHg 84%
    23:00 +17°C° 0 mm 2 m/s 760 mmHg 86%

    Demain, 18 Août, Samedi

    Heure Température Précipitation Vent Pression Humidité
    00:00 +16°C° 0 mm 2 m/s 760 mmHg 89%
    01:00 +16°C° 0 mm 2 m/s 761 mmHg 91%
    02:00 +16°C° 0 mm 2 m/s 761 mmHg 94%
    03:00 +16°C° 0 mm 2 m/s 761 mmHg 95%
    04:00 +16°C° 0 mm 2 m/s 760 mmHg 96%
    05:00 +15°C° 0 mm 2 m/s 760 mmHg 97%
    06:00 +17°C° 0 mm 2 m/s 760 mmHg 91%
    07:00 +19°C° 0 mm 2 m/s 760 mmHg 84%
    08:00 +20°C° 0 mm 2 m/s 760 mmHg 78%
    09:00 +23°C° 0 mm 2 m/s 760 mmHg 73%
    10:00 +25°C° 0 mm 3 m/s 760 mmHg 67%
    11:00 +26°C° 0 mm 3 m/s 760 mmHg 62%
    12:00 +26°C° 0,3 mm 3 m/s 759 mmHg 63%
    13:00 +27°C° 0,3 mm 3 m/s 759 mmHg 65%
    14:00 +27°C° 0,3 mm 3 m/s 759 mmHg 66%
    15:00 +26°C° 1 mm 3 m/s 758 mmHg 73%
    16:00 +25°C° 1 mm 3 m/s 758 mmHg 79%
    17:00 +24°C° 1 mm 2 m/s 758 mmHg 85%
    18:00 +23°C° 0,4 mm 2 m/s 758 mmHg 88%
    19:00 +21°C° 0,4 mm 2 m/s 758 mmHg 91%
    20:00 +20°C° 0,4 mm 2 m/s 758 mmHg 93%
    21:00 +19°C° 0,2 mm 2 m/s 758 mmHg 94%
    22:00 +19°C° 0,2 mm 2 m/s 757 mmHg 96%
    23:00 +19°C° 0,2 mm 2 m/s 757 mmHg 97%

    Après-demain, 19 Août, Dimanche

    Heure Température Précipitation Vent Pression Humidité
    00:00 +18°C° 0,1 mm 2 m/s 757 mmHg 97%
    01:00 +18°C° 0,1 mm 2 m/s 757 mmHg 97%
    02:00 +18°C° 0,1 mm 2 m/s 757 mmHg 98%
    03:00 +18°C° 0,1 mm 2 m/s 757 mmHg 98%
    04:00 +17°C° 0,1 mm 2 m/s 757 mmHg 98%
    05:00 +17°C° 0,1 mm 2 m/s 757 mmHg 98%
    06:00 +18°C° 0 mm 2 m/s 757 mmHg 96%
    07:00 +19°C° 0 mm 2 m/s 757 mmHg 94%
    08:00 +20°C° 0 mm 2 m/s 757 mmHg 92%
    09:00 +21°C° 0,3 mm 2 m/s 756 mmHg 86%
    10:00 +24°C° 0,3 mm 3 m/s 756 mmHg 80%
    11:00 +25°C° 0,3 mm 3 m/s 756 mmHg 74%
    12:00 +25°C° 0,6 mm 3 m/s 756 mmHg 73%
    13:00 +25°C° 0,6 mm 3 m/s 755 mmHg 72%
    14:00 +25°C° 0,6 mm 4 m/s 755 mmHg 72%
    15:00 +25°C° 0,2 mm 3 m/s 755 mmHg 70%
    16:00 +25°C° 0,2 mm 3 m/s 755 mmHg 68%
    17:00 +24°C° 0,2 mm 3 m/s 755 mmHg 66%
    18:00 +22°C° 0,2 mm 3 m/s 755 mmHg 74%
    19:00 +20°C° 0,2 mm 2 m/s 755 mmHg 82%
    20:00 +18°C° 0,2 mm 2 m/s 755 mmHg 91%
    21:00 +18°C° 0,2 mm 2 m/s 755 mmHg 93%
    22:00 +17°C° 0,2 mm 2 m/s 756 mmHg 95%
    23:00 +17°C° 0,2 mm 2 m/s 756 mmHg 97%

    20 Août, Lundi

    Heure Température Précipitation Vent Pression Humidité
    00:00 +17°C° 0,2 mm 2 m/s 756 mmHg 97%
    01:00 +16°C° 0,2 mm 2 m/s 756 mmHg 97%
    02:00 +16°C° 0,2 mm 2 m/s 756 mmHg 97%
    03:00 +15°C° 0 mm 2 m/s 756 mmHg 97%
    04:00 +14°C° 0 mm 2 m/s 757 mmHg 97%
    05:00 +13°C° 0 mm 2 m/s 757 mmHg 98%
    06:00 +14°C° 0 mm 2 m/s 757 mmHg 95%
    07:00 +15°C° 0 mm 2 m/s 757 mmHg 93%
    08:00 +16°C° 0 mm 2 m/s 758 mmHg 90%
    09:00 +18°C° 0 mm 2 m/s 758 mmHg 80%
    10:00 +19°C° 0 mm 2 m/s 758 mmHg 70%
    11:00 +21°C° 0 mm 2 m/s 758 mmHg 59%
    12:00 +21°C° 0 mm 2 m/s 758 mmHg 56%
    13:00 +23°C° 0 mm 2 m/s 758 mmHg 53%
    14:00 +23°C° 0 mm 2 m/s 758 mmHg 49%
    15:00 +23°C° 0 mm 2 m/s 758 mmHg 52%
    16:00 +23°C° 0 mm 1 m/s 758 mmHg 54%
    17:00 +23°C° 0 mm 1 m/s 758 mmHg 56%
    18:00 +21°C° 0 mm 1 m/s 758 mmHg 62%
    19:00 +19°C° 0 mm 1 m/s 758 mmHg 68%
    20:00 +15°C° 0 mm 0 m/s 759 mmHg 74%
    21:00 +14°C° 0 mm 0 m/s 759 mmHg 75%
    22:00 +14°C° 0 mm 0 m/s 759 mmHg 77%
    23:00 +13°C° 0 mm 0 m/s 759 mmHg 79%

    21 Août, Mardi

    Heure Température Précipitation Vent Pression Humidité
    00:00 +14°C° 0 mm 1 m/s 759 mmHg 80%
    01:00 +14°C° 0 mm 1 m/s 759 mmHg 81%
    02:00 +14°C° 0 mm 1 m/s 759 mmHg 82%
    03:00 +14°C° 0 mm 1 m/s 759 mmHg 84%
    04:00 +13°C° 0 mm 1 m/s 759 mmHg 86%
    05:00 +13°C° 0 mm 1 m/s 759 mmHg 88%
    06:00 +15°C° 0 mm 1 m/s 759 mmHg 83%
    07:00 +16°C° 0 mm 1 m/s 759 mmHg 77%
    08:00 +19°C° 0 mm 1 m/s 759 mmHg 72%
    09:00 +19°C° 0 mm 2 m/s 759 mmHg 66%
    10:00 +21°C° 0 mm 2 m/s 759 mmHg 61%
    11:00 +22°C° 0 mm 3 m/s 759 mmHg 55%
    12:00 +22°C° 0 mm 3 m/s 758 mmHg 54%
    13:00 +24°C° 0 mm 3 m/s 758 mmHg 52%
    14:00 +23°C° 0 mm 4 m/s 758 mmHg 50%
    15:00 +24°C° 0 mm 3 m/s 757 mmHg 53%
    16:00 +24°C° 0 mm 3 m/s 757 mmHg 56%
    17:00 +24°C° 0 mm 3 m/s 757 mmHg 58%
    18:00 +21°C° 0 mm 3 m/s 757 mmHg 66%
    19:00 +19°C° 0 mm 2 m/s 756 mmHg 73%
    20:00 +17°C° 0 mm 2 m/s 756 mmHg 81%
    21:00 +17°C° 0 mm 2 m/s 756 mmHg 83%
    22:00 +17°C° 0 mm 3 m/s 756 mmHg 86%
    23:00 +17°C° 0 mm 3 m/s 756 mmHg 88%

    22 Août, Mercredi

    Heure Température Précipitation Vent Pression Humidité
    00:00 +17°C° 0 mm 3 m/s 756 mmHg 90%
    01:00 +17°C° 0 mm 3 m/s 755 mmHg 92%
    02:00 +18°C° 0 mm 3 m/s 755 mmHg 94%
    03:00 +18°C° 0 mm 3 m/s 755 mmHg 94%
    04:00 +18°C° 0 mm 3 m/s 755 mmHg 94%
    05:00 +18°C° 0 mm 3 m/s 755 mmHg 94%
    06:00 +18°C° 0,1 mm 3 m/s 755 mmHg 93%
    07:00 +19°C° 0,1 mm 4 m/s 755 mmHg 92%
    08:00 +19°C° 0,1 mm 4 m/s 755 mmHg 90%
    09:00 +19°C° 0 mm 4 m/s 755 mmHg 87%
    10:00 +20°C° 0 mm 4 m/s 755 mmHg 84%
    11:00 +20°C° 0 mm 4 m/s 755 mmHg 81%
    12:00 +21°C° 0 mm 4 m/s 755 mmHg 75%
    13:00 +22°C° 0 mm 5 m/s 755 mmHg 69%
    14:00 +25°C° 0 mm 5 m/s 755 mmHg 63%
    15:00 +23°C° 0 mm 4 m/s 755 mmHg 65%
    16:00 +23°C° 0 mm 4 m/s 755 mmHg 67%
    17:00 +24°C° 0 mm 3 m/s 755 mmHg 69%
    18:00 +21°C° 0 mm 3 m/s 755 mmHg 76%
    19:00 +20°C° 0 mm 2 m/s 755 mmHg 83%
    20:00 +18°C° 0 mm 2 m/s 756 mmHg 90%
    21:00 +17°C° 0 mm 2 m/s 756 mmHg 91%
    22:00 +16°C° 0 mm 2 m/s 756 mmHg 92%
    23:00 +16°C° 0 mm 2 m/s 757 mmHg 93%
    Voir plus